Miscellaneous Local Product
Issued by NWS North Platte, NE

Home | Current Version | Previous Version | Text Only | Print | Product List | Glossary On
Versions: 1 2 3 4 5 6 7 8 9 10 11 12 13 14 15 16 17 18 19 20 21 22 23 24 25 26 27 28 29 30 31 32 33 34 35 36 37 38 39 40 41 42 43 44 45 46 47 48 49 50
538
AXUS43 KLBF 012010
MISLBF


WESTERN AND NORTH CENTRAL NEBRASKA HOURLY WEATHER ROUNDUP
NATIONAL WEATHER SERVICE NORTH PLATTE NE
200 PM CST WED MAR 01 2017

NOTE: "FAIR" INDICATES FEW OR NO CLOUDS BELOW 12,000 FEET WITH NO
SIGNIFICANT WEATHER AND/OR OBSTRUCTIONS TO VISIBILITY.

NOTE: STATIONS NOT REPORTING VARIABLES SUCH AS SKY/WEATHER OR
PRESSURE ARE PROVIDED BY RAWS AND APRS NETWORKS AND ARE NOT UNDER
NATIONAL WEATHER SERVICE QUALITY CONTROL.

...OBSERVATIONS IN AND NEAR THE EASTERN PANHANDLE OF NEBRASKA...

CITY           SKY/WX    TMP DP  RH WIND       PRES   REMARKS
PINE RIDGE     SUNNY     34  17  50 W17G25    30.11F WCI  23
CHADRON        SUNNY     32  16  51 W17       30.14F WCI  21
ALLIANCE       SUNNY     31  18  58 W22       30.13F WCI  18
SIDNEY         SUNNY     42  11  28 NW28G44   30.16F
CRESCENT LAKE    N/A     35  15  44 W14G23      N/A  WCI  26
$$

...OBSERVATIONS IN NORTHERN NEBRASKA AND FAR SOUTHERN SOUTH DAKOTA...

CITY           SKY/WX    TMP DP  RH WIND       PRES   REMARKS
WINNER         FAIR      40  22  48 NW23G30   30.13F WCI  30
VALENTINE      SUNNY     36  17  46 NW16G22   30.13F WCI  26
THEDFORD       SUNNY     38  17  42 NW15G28   30.16R WCI  30
AINSWORTH      MOSUNNY   35  22  60 NW16G25   30.13F WCI  25
O`NEILL        PTSUNNY   35  23  60 NW20G28   30.14S WCI  24
ORD            MOSUNNY   42  16  34 NW29G39   30.14S
BROKEN BOW     MOSUNNY   43  16  33 NW28G38   30.15S
VALENTINE NWR    N/A     36  18  47 NW17G25     N/A  WCI  26
BUTTE            N/A     33  23  67 NW22G31     N/A  WCI  21
HALSEY           N/A     40  14  34 W12G23      N/A  WCI  33
CHAMBERS         N/A     40  22  47 N8G16       N/A  WCI  34
EWING            N/A     36  24  63 NW18G26     N/A  WCI  26
$$

...OBSERVATIONS IN SOUTHWEST NEBRASKA AND FAR NORTHEAST COLORADO...

CITY           SKY/WX    TMP DP  RH WIND       PRES   REMARKS
WRAY           FAIR      46   3  17 NW23G31   30.21
HOLYOKE        FAIR      46   7  19 NW24G39   30.18F
IMPERIAL       SUNNY     44   6  21 NW24G32   30.20F
OGALLALA       SUNNY     44   9  24 NW20G26   30.18F
NORTH PLATTE   SUNNY     45  11  25 NW23G30   30.19F
MCCOOK         MOSUNNY   47  10  22 NW21G33   30.21F
LEXINGTON      MOSUNNY   45  11  25 NW23G33   30.18S
STAPLETON        N/A     40  16  37 MISG        N/A
GOTHENBURG       N/A     42   9  25 NW16        N/A
CALLAWAY         N/A     41  14  33 NW25        N/A
$$

...OBSERVATIONS IN CENTRAL LINCOLN COUNTY AREA...

CITY           SKY/WX    TMP DP  RH WIND       PRES   REMARKS
N.P. AIRPORT   SUNNY     45  11  25 NW23G30   30.19F
N.P. DOWNTOWN    N/A     41  13  31 W14G22      N/A
N.P. SOUTHEAST   N/A     41  11  29 NW12G25     N/A
N.P. HILLCREST   N/A     40  12  31 NW23G33     N/A  WCI  30
$$

...SOME OBSERVATIONS FROM AROUND THE REGION...

CITY           SKY/WX    TMP DP  RH WIND       PRES   REMARKS
LARAMIE        SUNNY     26   8  46 W29G38    30.12F WCI  10
CHEYENNE       SUNNY     32  12  43 W24G33    30.13F WCI  19
DENVER         MOSUNNY   44  -1  15 SW14      30.13F
AKRON          SUNNY     42   8  24 W15       30.17F
SCOTTSBLUFF    SUNNY     36  19  50 W22G32    30.16F WCI  25
RAPID CITY     PTSUNNY   41   9  26 NW14G23   30.05F
BISMARCK       CLOUDY    26  15  63 VRB5      30.12F WCI  20
PIERRE         MOSUNNY   30  19  63 NW15      30.13F WCI  19
SIOUX FALLS    CLOUDY    31  24  75 NW15G24   30.07R WCI  20
OMAHA          CLOUDY    41  26  55 NW23G31   30.11R
GRAND ISLAND   MOSUNNY   44  16  32 NW33G47   30.15F
KANSAS CITY    MOSUNNY   49  25  39 NW17G29   30.10S
WICHITA        MOSUNNY   56  13  18 NW18G28   30.21S
OKLAHOMA CITY  MOSUNNY   59   8  13 NW24G31   30.24F
DALLAS         MOSUNNY   67  14  13 N21G26    30.20F
AMARILLO       SUNNY     52  11  19 N5        30.29F
DODGE CITY     SUNNY     52   1  12 NW26G36   30.24F
HAYS           SUNNY     51   6  16 NW23G35   30.22S
GOODLAND       SUNNY     46   4  17 NW29G37   30.20F
$$




USA.gov is the U.S. government's official web portal to all federal, state and local government web resources and services.